sat.trackr.live / text

‹ back to catalog

STARLINK-5677

NORAD 55463 · 2023-015Q

PAYLOAD ACTIVE UNKNOWN

§ Identity

Operator
Country
US
Launch date
2023-02-02
Launch site
AFETR
Launch vehicle
Mass (kg)
RCS (m²)

Purposes: comms

External: N2YO · Heavens-Above · Gunter

§ Orbital elements

Epoch: 2026-09-20T21:21:40.154976Z

Period
94.64 min
Inclination
42.9991°
Eccentricity
0.0007862
Mean motion
15.21492510 rev/d
Perigee alt
495.9 km
Apogee alt
506.7 km
Semi-major
6,879.5 km
B*
6.4249e-4
RAAN
320.9979°
Arg perigee
19.1075°
Mean anomaly
341.0068°
Rev number
20,040

§ Raw data

STARLINK-56771 55463U 23015Q   26263.89004809  .00014525  00000+0  64249-3 0  99952 55463  42.9991 320.9979 0007862  19.1075 341.0068 15.21492510200402

JSON: /api/v1/satellites/55463 · /tle

For live sub-satellite position, see the globe view (requires WebGL).

§ Visibility from observer

Set your observer location to see the next 7 days of passes ≥ 10°. The values pass through the URL so the page stays shareable.

No JS? Fill the form by hand. The geolocation button needs JavaScript.